Date String (YYYY-MM-DD hh:mm:ss) UTC,Instrument flags,Ambient pressure (hPa),Sample flow (lpm),Bypass flow (lpm),Sample temperature (°C),Ambient temperature (°C),ASC tube jacket temperature (°C),LED temperature (°C),Box temperature (°C),Sample RH (%),Span deviation,Mass concentration (μg/m³),Mass concentration (μg/m³),Mass concentration (μg/m³)
DateTimeUTC,F1_M11,P_M11,Q1_M11,Q2_M11,T1_M11,T2_M11,T3_M11,T4_M11,T5_M11,U1_M11,ZSPAN_M11,X0_M11,X2_M11,X1_M11
2023-01-13 07:00:00,,0832.7,5.01,0.00,22.3,21.8,00.0,31.1,24.2,12.7,-000.2,0017.65,0011.88,0010.99
2023-01-13 07:01:00,,0832.7,4.99,0.00,22.3,21.6,00.0,31.1,24.1,12.8,-000.5,0017.89,0011.95,0011.08
2023-01-13 07:02:00,,0832.6,5.00,0.00,22.3,21.4,00.0,31.2,24.1,12.8,-000.6,0017.84,0012.00,0011.17
2023-01-13 07:03:00,,0832.6,5.00,0.00,22.3,21.2,00.0,31.2,24.0,12.8,-000.5,0017.78,0012.09,0011.27
2023-01-13 07:04:00,,0832.6,5.01,0.00,22.2,20.9,00.0,31.2,23.9,12.7,-000.4,0018.34,0012.17,0011.37
2023-01-13 07:05:00,,0832.6,5.00,0.00,22.2,20.6,00.0,31.2,23.8,12.7,-000.1,0018.53,0012.20,0011.42
2023-01-13 07:06:00,,0832.5,5.00,0.00,22.2,20.4,00.0,31.1,23.8,12.7,0000.1,0018.37,0012.15,0011.41
2023-01-13 07:07:00,,0832.5,5.00,0.00,22.1,20.3,00.0,31.1,23.7,12.6,0000.3,0018.57,0012.09,0011.35
2023-01-13 07:08:00,,0832.5,5.00,0.00,22.1,20.3,00.0,31.1,23.7,12.6,-000.2,0019.35,0012.03,0011.31
2023-01-13 07:09:00,,0832.6,5.00,0.00,22.1,20.4,00.0,31.1,23.7,12.6,-000.2,0019.32,0012.02,0011.27
2023-01-13 07:10:00,,0832.6,5.01,0.00,22.0,20.4,00.0,31.1,23.7,12.6,-000.2,0019.18,0011.99,0011.22
2023-01-13 07:11:00,,0832.6,5.00,0.00,22.0,20.4,00.0,31.1,23.7,12.6,-000.2,0018.95,0011.89,0011.15
2023-01-13 07:12:00,,0832.6,5.00,0.00,22.0,20.4,00.0,31.0,23.7,12.7,0000.1,0018.63,0011.75,0010.99
2023-01-13 07:13:00,,0832.6,5.00,0.00,22.0,20.4,00.0,31.0,23.6,12.8,0000.3,0018.31,0011.66,0010.87
2023-01-13 07:14:00,,0832.6,5.00,0.00,22.0,20.3,00.0,31.0,23.6,12.9,0000.3,0018.12,0011.61,0010.80
2023-01-13 07:15:00,,0832.6,5.00,0.00,21.9,20.2,00.0,31.0,23.5,12.9,0000.6,0017.68,0011.52,0010.71
2023-01-13 07:16:00,,0832.6,5.00,0.00,21.9,20.0,00.0,31.0,23.4,12.7,0000.6,0017.56,0011.45,0010.62
2023-01-13 07:17:00,,0832.6,5.00,0.00,21.8,19.9,00.0,30.9,23.4,12.7,0000.7,0017.64,0011.44,0010.55
2023-01-13 07:18:00,,0832.6,5.00,0.00,21.8,20.6,00.0,30.9,23.5,12.7,0000.5,0017.35,0011.38,0010.50
2023-01-13 07:19:00,,0832.6,5.01,0.00,21.9,21.7,00.0,30.9,23.8,12.6,0000.7,0016.49,0011.34,0010.49
2023-01-13 07:20:00,,0832.5,4.99,0.00,22.1,22.5,00.0,30.9,24.0,12.6,0000.2,0016.68,0011.32,0010.47
2023-01-13 07:21:00,,0832.5,4.99,0.00,22.1,22.1,00.0,30.9,24.1,12.5,-000.3,0016.84,0011.25,0010.45
2023-01-13 07:22:00,,0832.5,5.00,0.00,22.1,21.6,00.0,31.0,23.9,12.4,-000.5,0016.87,0011.24,0010.44
2023-01-13 07:23:00,,0832.5,5.01,0.00,22.1,21.3,00.0,31.0,23.9,12.4,-000.4,0016.91,0011.22,0010.44
2023-01-13 07:24:00,,0832.4,5.01,0.00,22.1,21.1,00.0,31.0,23.8,12.6,-000.3,0016.77,0011.19,0010.43
2023-01-13 07:25:00,,0832.4,4.99,0.00,22.1,20.8,00.0,31.0,23.8,12.6,-000.4,0016.71,0011.14,0010.39
2023-01-13 07:26:00,,0832.4,5.01,0.00,22.1,20.7,00.0,31.0,23.7,12.7,-000.7,0016.55,0011.14,0010.40
2023-01-13 07:27:00,,0832.4,5.01,0.00,22.0,20.6,00.0,31.0,23.7,12.8,-000.7,0016.29,0011.18,0010.45
2023-01-13 07:28:00,,0832.3,5.00,0.00,22.0,20.5,00.0,31.0,23.7,12.8,-000.8,0016.22,0011.21,0010.51
2023-01-13 07:29:00,,0832.3,4.99,0.00,22.0,20.5,00.0,31.0,23.7,12.8,-000.9,0016.56,0011.26,0010.58
2023-01-13 07:30:00,,0832.3,5.00,0.00,22.0,20.6,00.0,31.0,23.7,12.8,-000.6,0016.72,0011.36,0010.62
2023-01-13 07:31:00,,0832.3,5.00,0.00,22.0,20.6,00.0,31.0,23.7,12.9,-000.3,0016.47,0011.40,0010.69
2023-01-13 07:32:00,,0832.4,5.00,0.00,22.0,20.6,00.0,30.9,23.8,12.8,-000.2,0016.21,0011.48,0010.76
2023-01-13 07:33:00,,0832.4,4.99,0.00,22.0,20.6,00.0,30.9,23.8,12.5,-000.4,0016.18,0011.48,0010.76
2023-01-13 07:34:00,,0832.4,5.00,0.00,22.0,20.7,00.0,30.9,23.8,12.3,-000.6,0016.08,0011.41,0010.70
2023-01-13 07:35:00,,0832.4,5.00,0.00,22.0,20.7,00.0,30.9,23.8,12.3,-000.7,0016.06,0011.34,0010.64
2023-01-13 07:36:00,,0832.3,5.01,0.00,22.0,20.7,00.0,30.9,23.8,12.4,-000.4,0016.13,0011.33,0010.60
2023-01-13 07:37:00,,0832.3,4.99,0.00,22.0,20.7,00.0,30.9,23.8,12.3,-000.4,0016.41,0011.26,0010.52
2023-01-13 07:38:00,,0832.4,5.00,0.00,22.0,20.7,00.0,30.9,23.8,12.5,-000.8,0017.15,0011.18,0010.45
2023-01-13 07:39:00,,0832.4,5.00,0.00,22.0,20.7,00.0,30.9,23.7,12.6,-000.9,0017.33,0011.16,0010.42
2023-01-13 07:40:00,,0832.3,5.00,0.00,22.0,20.7,00.0,30.9,23.8,12.2,-000.6,0016.89,0011.08,0010.32
2023-01-13 07:41:00,,0832.3,5.00,0.00,22.0,20.7,00.0,30.9,23.8,12.1,-000.8,0016.75,0010.96,0010.21
2023-01-13 07:42:00,,0832.2,5.01,0.00,22.0,20.7,00.0,30.9,23.7,12.0,-001.1,0016.77,0010.85,0010.08
2023-01-13 07:43:00,,0832.3,4.99,0.00,22.0,20.7,00.0,30.9,23.7,11.9,-001.0,0016.58,0010.70,0009.96
2023-01-13 07:44:00,,0832.2,5.00,0.00,22.1,21.5,00.0,30.9,23.9,12.1,-000.3,0016.59,0010.72,0009.97
2023-01-13 07:45:00,,0832.3,4.99,0.00,22.2,22.3,00.0,30.9,24.1,12.0,-000.1,0016.59,0010.79,0010.02
2023-01-13 07:46:00,,0832.3,5.00,0.00,22.3,22.6,00.0,30.9,24.3,11.9,-000.2,0016.81,0010.86,0010.07
2023-01-13 07:47:00,,0832.3,5.00,0.00,22.3,22.1,00.0,31.0,24.2,12.0,0000.1,0016.91,0010.89,0010.13
2023-01-13 07:48:00,,0832.3,5.00,0.00,22.3,21.6,00.0,31.0,24.1,11.7,0000.0,0016.47,0010.86,0010.13
2023-01-13 07:49:00,,0832.3,5.00,0.00,22.3,21.2,00.0,31.0,24.0,11.6,-000.2,0015.59,0010.82,0010.09
2023-01-13 07:50:00,,0832.3,5.01,0.00,22.2,21.0,00.0,31.1,23.9,11.6,-000.3,0015.33,0010.75,0010.00
2023-01-13 07:51:00,,0832.3,5.00,0.00,22.2,20.7,00.0,31.1,23.8,11.6,-000.0,0015.86,0010.75,0010.01
2023-01-13 07:52:00,,0832.3,4.99,0.00,22.2,20.6,00.0,31.1,23.8,11.6,0000.2,0016.13,0010.73,0010.02
2023-01-13 07:53:00,,0832.3,5.00,0.00,22.1,20.4,00.0,31.1,23.7,11.6,0000.6,0016.36,0010.73,0010.01
2023-01-13 07:54:00,,0832.2,5.03,0.00,22.1,20.3,00.0,31.0,23.7,11.6,0001.0,0016.82,0010.77,0010.01
2023-01-13 07:55:00,,0832.2,4.99,0.00,22.1,20.3,00.0,31.0,23.6,11.7,0000.9,0017.14,0010.73,0009.94
2023-01-13 07:56:00,,0832.1,5.00,0.00,22.0,20.3,00.0,31.0,23.6,11.7,0000.3,0017.18,0010.68,0009.89
2023-01-13 07:57:00,,0832.1,5.00,0.00,22.0,20.2,00.0,31.0,23.6,11.7,-000.1,0017.04,0010.60,0009.83
2023-01-13 07:58:00,,0832.1,5.00,0.00,22.0,20.3,00.0,31.0,23.6,11.7,-000.5,0016.98,0010.50,0009.73
2023-01-13 07:59:00,,0832.1,5.00,0.00,22.0,20.3,00.0,31.0,23.6,11.7,-000.2,0017.04,0010.51,0009.72
